Preview of NWS' New Version of Forecast
This preview is not operational and should not be used for support decisions.

Regional Weather Roundup (RWR)

Issued by National Weather Service (NWS)

                            
000
ASUS45 KABQ 211110
RWRNM 
NEW MEXICO REGIONAL WEATHER ROUNDUP
NATIONAL WEATHER SERVICE ALBUQUERQUE NM
500 AM MDT SAT SEP 21 2019

NOTE: "FAIR" MEANS FEW OR NO CLOUDS BELOW 12,000 FEET AGL WITH NO
       SIGNIFICANT WEATHER OR OBSTRUCTIONS TO VISION.

      THIS PRODUCT IS RELEASED AS TWO VERSIONS.  ONE VERSION NEAR
      THE TOP OF THE HOUR CONTAINING PRELIMINARY DATA FROM ALBUQUERQUE
      AND OTHER STATIONS.  A FINAL VERSION WITH ADDITIONAL DATA IS 
      ISSUED ABOUT 10 MINUTES AFTER THE HOUR.
 
NMZ501-503-504-510>518-211200-
NORTHWEST PLATEAU/NORTHCENTRAL MOUNTAINS
  
CITY           SKY/WX    TMP DP  RH WIND       PRES   REMARKS
FARMINGTON     FAIR      42  21  43 N6        30.08S                  
LOS ALAMOS     FAIR      59  24  26 CALM      30.19S                  
SANTA FE       FAIR      50  33  52 NE6       30.13S                  
TAOS           FAIR      42  24  49 E7        30.19R                  

$$
NMZ402-403-502-505>509-211200-
WESTCENTRAL MOUNTAINS/SOUTHWEST MOUNTAINS
  
CITY           SKY/WX    TMP DP  RH WIND       PRES   REMARKS
GALLUP         FAIR      40  26  57 E5        30.16R                  
GRANTS         FAIR      40  35  80 NW10      30.19R WCI  34          
SILVER CITY    FAIR      54  42  63 N6        30.10R                  

$$
NMZ407-409-411-412-211200-
SOUTHERN DESERTS
  
CITY           SKY/WX    TMP DP  RH WIND       PRES   REMARKS
DEMING         FAIR      60  49  66 W5        30.02S                  
LAS CRUCES     MOCLDY    67  47  49 NW6       30.03R                  
HOLLOMAN AFB   MOCLDY    71  50  46 SE7       30.01R                  
ALAMOGORDO     MOCLDY    66  50  55 MISG      30.00S                  
T OR C         FAIR      65  44  46 NW10      30.03S                  

$$
NMZ519>523-211200-
CENTRAL VALLEYS/CENTRAL HIGHLANDS
  
CITY           SKY/WX    TMP DP  RH WIND       PRES   REMARKS
ALBUQUERQUE    FAIR      60  32  34 S3        30.09R                  
DOUBLE EAGLE   FAIR      53  33  47 W5        30.12R                  
MORIARTY ARPT  FAIR      43  39  86 CALM      30.15S                  
CLINES CORNERS FAIR      50  29  44 W9        30.19R                  
BELEN          FAIR      56  32  40 NW5       30.09R                  
SOCORRO        FAIR      58  38  46 NW3       30.06R                  

$$
NMZ524>526-539-540-211200-
SOUTHCENTRAL MOUNTAINS
  
CITY           SKY/WX    TMP DP  RH WIND       PRES   REMARKS
RUIDOSO        FAIR      57  41  54 SW5       30.19S                  

$$
NMZ527>531-211200-
NORTHEAST HIGHLANDS/NORTHEAST PLAINS
  
CITY           SKY/WX    TMP DP  RH WIND       PRES   REMARKS
LAS VEGAS      FAIR      55  30  38 SW7       30.14S                  
RATON          FAIR      47  40  76 N8        30.08R                  
CLAYTON        CLOUDY    64  62  93 S10       30.03R                  

$$
NMZ532>537-211200-
EASTCENTRAL PLAINS
  
CITY           SKY/WX    TMP DP  RH WIND       PRES   REMARKS
TUCUMCARI      FAIR      67  62  84 SW13      29.98R                  
CANNON AFB     MOCLDY    65  65 100 SE8       30.06R                  
CLOVIS AIRPORT CLOUDY    64  63  96 S9        30.06R                  

$$
NMZ028-029-033-538-211200-
SOUTHEAST PLAINS
  
CITY           SKY/WX    TMP DP  RH WIND       PRES   REMARKS
ROSWELL        FAIR      70  64  81 CALM      29.98R                  
ARTESIA        MOCLDY    70  66  88 CALM      29.99S                  
CARLSBAD       FAIR      73  63  70 SE7       29.95R                  
HOBBS          CLOUDY    70  66  88 SE8       30.02R                  


$$